Regional Weather Roundup
Issued by NWS Mt. Holly, NJ

Home | Current Version | Previous Version | Text Only | Print | Product List | Glossary On
Versions: 1 2 3 4 5 6 7 8 9 10 11 12 13 14 15 16 17 18 19 20 21 22 23 24 25 26 27 28 29 30 31 32 33 34 35 36 37 38 39 40 41 42 43 44 45 46 47 48 49 50
000
ASUS41 KPHI 222313
RWRPHI

REGIONAL WEATHER ROUNDUP
NATIONAL WEATHER SERVICE MOUNT HOLLY NJ
700 PM EDT SUN APR 22 2018

NOTE:  "FAIR" INDICATES FEW OR NO CLOUDS BELOW 12,000 FEET WITH NO
SIGNIFICANT WEATHER AND/OR OBSTRUCTIONS TO VISIBILITY.

 * = STATION DOES NOT REPORT PRECIPITATION (E.G. RAIN, SNOW, ETC.)
        OR FOG.

NJZ015>026-230000-
SOUTHERN NEW JERSEY

CITY           SKY/WX    TMP DP  RH WIND       PRES   REMARKS
POMONA         FAIR      54  29  38 S10       30.37S
WILDWOOD*      FAIR      52  33  48 S10       30.38S
MILLVILLE      FAIR      53  30  41 S5        30.36S
WRIGHTSTOWN    FAIR      57  25  29 SE13      30.31S
MOUNT HOLLY    FAIR      63  25  23 N5        30.33S
TRENTON        FAIR      64  20  18 SW8       30.32S

$$
NJZ001>014-230000-
NORTHERN NEW JERSEY

CITY           SKY/WX    TMP DP  RH WIND       PRES   REMARKS
SUSSEX         FAIR      64  18  17 N6        30.31S
ANDOVER*         N/A     63  14  15 N7        30.31S
MORRISTOWN     PTCLDY    64  12  13 CALM      30.30F
NEWARK         FAIR      60  32  34 SE10      30.32R
TETERBORO      FAIR      59  23  25 S9        30.32R
CALDWELL       FAIR      62  23  22 SE7       30.31S
SOMERVILLE     FAIR      66  14  13 NW3       30.29S
ALLAIRE*       FAIR      54  25  32 S9G17       N/A
TOMS RIVER*      N/A     54  28  36 S10       30.36S

$$
PAZ043-044-047-054-055-060>062-066>071-230000-
EASTERN PENNSYLVANIA

CITY           SKY/WX    TMP DP  RH WIND       PRES   REMARKS
PHILADELPHIA   FAIR      64  25  22 SW9       30.33F
NORTH PHILA    FAIR      64  28  25 W9        30.34S
BLUE BELL*     FAIR      63  28  27 W3        30.34S
DOYLESTOWN     FAIR      63  20  19 W6        30.31F
QUAKERTOWN*    CLEAR     63  21  20 CALM      30.32S
PERKASIE*      FAIR      63  19  19 SW3       30.33S
POTTSTOWN      FAIR      63  19  18 CALM      30.33F
LANCASTER      FAIR      62  27  26 SW3       30.33S
COATESVILLE    FAIR      61  25  25 W5        30.35S
READING        FAIR      64  24  21 W6        30.31F
ALLENTOWN      FAIR      65  20  17 NW5       30.31F
MOUNT POCONO   FAIR      56  14  19 NW7       30.32S
HAZLETON       FAIR      59  12  15 N6        30.35S
LEHIGHTON      FAIR      64  14  14 CALM      30.32S
WILKES BARRE   FAIR      62  16  16 N9        30.32S

$$
DEZALL-MDZ008-012-015-019-020-230000-
DELAWARE AND EASTERN MARYLAND

CITY           SKY/WX    TMP DP  RH WIND       PRES   REMARKS
WILMINGTON     FAIR      59  36  42 S13       30.35R
GEORGETOWN     FAIR      55  32  41 SE6       30.38S
EASTON         PTCLDY    63  36  36 S9        30.38S
PATUXENT       FAIR      58  37  45 SE10      30.34
OCEAN CITY     FAIR      49  40  71 CALM      30.39F
WALLOPS ISLAND FAIR      53  44  71 SE8       30.38F
CAMBRIDGE      CLEAR     59  36  41 VRB6      30.35S
SALISBURY      FAIR      53  39  59 E8        30.37S

$$
PAZ001-021-NYZ056-072-MDZ011-DCZ001-230000-
OTHER NEARBY LOCATIONS

CITY           SKY/WX    TMP DP  RH WIND       PRES   REMARKS
HARRISBURG     FAIR      62  31  31 SE5       30.32F
STATE COLLEGE  CLEAR     61  23  23 CALM      30.31S
WILLIAMSPORT   FAIR      65  12  12 NE6       30.30S
BINGHAMTON     FAIR      54  15  21 N13       30.34S
NEW YORK CITY  FAIR      56  23  27 S8G18     30.35S
BALTIMORE      FAIR      61  33  35 SE3       30.33F
WASHINGTON DC  MOCLDY    61  38  42 SE9       30.33S

$$



USA.gov is the U.S. government's official web portal to all federal, state and local government web resources and services.